GJOHN EGNY-EGCJ

Flight info

Callsign GJOHN
Flight time 0h 34m
Altitude 1500
Route BEVERLEY MARKET WEIGHTON NORTH DUFFIELD SELBY SHERBURN IN ELMET
Aircraft C182/L-VGDW/C

Departure

Time 2026-05-04 19:36
Airport Beverley/Linley Hill Airfield (EGNY)

Arrival

Time 2026-05-04 20:11
Airport Sherburn-in-Elmet Airfield (EGCJ)
Time Latitude Longitude Altitude Speed Heading
2026-05-04 19:33 53.89897 -0.36650 7 ft 0 kts 27°
2026-05-04 19:34 53.89899 -0.36648 7 ft 4 kts 25°
2026-05-04 19:34 53.89942 -0.36625 7 ft 6 kts 28°
2026-05-04 19:34 53.89966 -0.36574 7 ft 5 kts 99°
2026-05-04 19:35 53.89960 -0.36552 7 ft 0 kts 115°
2026-05-04 19:35 53.89956 -0.36537 7 ft 12 kts 115°
2026-05-04 19:36 53.89822 -0.36080 28 ft 67 kts 114°
2026-05-04 19:36 53.89599 -0.35301 249 ft 81 kts 117°
2026-05-04 19:36 53.89498 -0.34366 470 ft 84 kts 82°
2026-05-04 19:36 53.89834 -0.33526 640 ft 90 kts 34°
2026-05-04 19:37 53.90380 -0.33053 801 ft 88 kts 16°
2026-05-04 19:37 53.90958 -0.33189 951 ft 84 kts 328°
2026-05-04 19:37 53.91356 -0.33919 1065 ft 86 kts 300°
2026-05-04 19:37 53.91634 -0.34816 1162 ft 86 kts 291°
2026-05-04 19:38 53.91876 -0.35732 1263 ft 85 kts 290°
2026-05-04 19:38 53.92134 -0.36659 1299 ft 89 kts 295°
2026-05-04 19:38 53.92458 -0.37561 1370 ft 89 kts 297°
2026-05-04 19:38 53.92519 -0.38577 1390 ft 90 kts 252°
2026-05-04 19:39 53.92114 -0.39355 1408 ft 90 kts 211°
2026-05-04 19:39 53.91565 -0.39787 1490 ft 84 kts 201°
2026-05-04 19:39 53.90973 -0.39948 1494 ft 89 kts 185°
2026-05-04 19:39 53.90347 -0.40028 1501 ft 92 kts 187°
2026-05-04 19:40 53.89680 -0.40158 1510 ft 99 kts 190°
2026-05-04 19:40 53.89034 -0.40332 1511 ft 102 kts 192°
2026-05-04 19:40 53.88332 -0.40586 1507 ft 105 kts 196°
2026-05-04 19:40 53.87626 -0.40928 1502 ft 106 kts 201°
2026-05-04 19:41 53.86972 -0.41493 1501 ft 106 kts 216°
2026-05-04 19:41 53.86407 -0.42287 1502 ft 106 kts 224°
2026-05-04 19:41 53.85886 -0.43168 1502 ft 106 kts 227°
2026-05-04 19:41 53.85403 -0.44103 1498 ft 106 kts 240°
2026-05-04 19:42 53.85288 -0.45320 1499 ft 106 kts 270°
2026-05-04 19:42 53.85314 -0.46567 1502 ft 106 kts 271°
2026-05-04 19:42 53.85342 -0.47811 1503 ft 106 kts 271°
2026-05-04 19:42 53.85368 -0.49060 1503 ft 106 kts 271°
2026-05-04 19:43 53.85393 -0.50308 1503 ft 106 kts 271°
2026-05-04 19:43 53.85417 -0.51571 1503 ft 106 kts 271°
2026-05-04 19:43 53.85440 -0.52822 1502 ft 106 kts 271°
2026-05-04 19:43 53.85463 -0.54073 1502 ft 107 kts 271°
2026-05-04 19:44 53.85486 -0.55327 1502 ft 107 kts 271°
2026-05-04 19:44 53.85509 -0.56584 1502 ft 107 kts 271°
2026-05-04 19:44 53.85532 -0.57844 1503 ft 107 kts 271°
2026-05-04 19:44 53.85555 -0.59106 1503 ft 107 kts 271°
2026-05-04 19:45 53.85578 -0.60366 1504 ft 107 kts 271°
2026-05-04 19:45 53.85600 -0.61628 1504 ft 107 kts 271°
2026-05-04 19:45 53.85622 -0.62889 1504 ft 107 kts 271°
2026-05-04 19:45 53.85645 -0.64155 1505 ft 108 kts 271°
2026-05-04 19:46 53.85666 -0.65407 1506 ft 107 kts 271°
2026-05-04 19:46 53.85677 -0.66667 1505 ft 107 kts 266°
2026-05-04 19:46 53.85582 -0.67908 1506 ft 106 kts 260°
2026-05-04 19:46 53.85453 -0.69142 1505 ft 106 kts 259°
2026-05-04 19:47 53.85316 -0.70378 1505 ft 106 kts 259°
2026-05-04 19:47 53.85177 -0.71605 1505 ft 106 kts 259°
2026-05-04 19:47 53.85036 -0.72833 1505 ft 106 kts 259°
2026-05-04 19:47 53.84895 -0.74060 1502 ft 106 kts 259°
2026-05-04 19:48 53.84753 -0.75285 1501 ft 106 kts 259°
2026-05-04 19:48 53.84611 -0.76512 1501 ft 106 kts 259°
2026-05-04 19:48 53.84467 -0.77751 1501 ft 106 kts 258°
2026-05-04 19:48 53.84325 -0.78977 1502 ft 106 kts 258°
2026-05-04 19:49 53.84183 -0.80203 1501 ft 106 kts 258°
2026-05-04 19:49 53.84041 -0.81426 1501 ft 106 kts 258°
2026-05-04 19:49 53.83898 -0.82651 1501 ft 106 kts 258°
2026-05-04 19:49 53.83755 -0.83876 1501 ft 106 kts 258°
2026-05-04 19:50 53.83613 -0.85100 1501 ft 106 kts 258°
2026-05-04 19:50 53.83473 -0.86294 1501 ft 106 kts 258°
2026-05-04 19:50 53.83330 -0.87519 1501 ft 106 kts 258°
2026-05-04 19:50 53.83187 -0.88744 1501 ft 106 kts 258°
2026-05-04 19:51 53.83044 -0.89967 1502 ft 106 kts 258°
2026-05-04 19:51 53.82900 -0.91190 1502 ft 106 kts 258°
2026-05-04 19:51 53.82755 -0.92429 1502 ft 106 kts 258°
2026-05-04 19:51 53.82611 -0.93653 1502 ft 106 kts 258°
2026-05-04 19:52 53.82467 -0.94875 1502 ft 106 kts 258°
2026-05-04 19:52 53.82323 -0.96098 1502 ft 106 kts 258°
2026-05-04 19:52 53.82057 -0.97246 1497 ft 107 kts 233°
2026-05-04 19:52 53.81535 -0.98133 1501 ft 106 kts 224°
2026-05-04 19:53 53.81014 -0.98921 1502 ft 106 kts 223°
2026-05-04 19:53 53.80459 -0.99745 1502 ft 107 kts 223°
2026-05-04 19:53 53.79903 -1.00568 1501 ft 103 kts 223°
2026-05-04 19:53 53.79400 -1.01311 1487 ft 90 kts 223°
2026-05-04 19:54 53.78950 -1.01977 1483 ft 84 kts 222°
2026-05-04 19:54 53.78513 -1.02621 1487 ft 83 kts 222°
2026-05-04 19:54 53.78080 -1.03261 1490 ft 83 kts 222°
2026-05-04 19:54 53.77825 -1.04091 1497 ft 82 kts 265°
2026-05-04 19:55 53.77824 -1.05055 1508 ft 82 kts 268°
2026-05-04 19:55 53.77814 -1.06040 1508 ft 84 kts 267°
2026-05-04 19:55 53.77798 -1.07025 1507 ft 84 kts 266°
2026-05-04 19:55 53.77776 -1.08013 1522 ft 83 kts 265°
2026-05-04 19:56 53.77723 -1.08985 1489 ft 83 kts 263°
2026-05-04 19:56 53.77671 -1.09954 1371 ft 84 kts 266°
2026-05-04 19:56 53.77665 -1.10959 1239 ft 87 kts 269°
2026-05-04 19:56 53.77676 -1.11976 1130 ft 86 kts 271°
2026-05-04 19:57 53.77718 -1.12959 1014 ft 83 kts 273°
2026-05-04 19:57 53.77738 -1.13938 959 ft 85 kts 268°
2026-05-04 19:57 53.77729 -1.14939 883 ft 85 kts 266°
2026-05-04 19:57 53.77712 -1.15933 744 ft 84 kts 270°
2026-05-04 19:58 53.77765 -1.16893 622 ft 80 kts 277°
2026-05-04 19:58 53.77856 -1.17777 523 ft 74 kts 281°
2026-05-04 19:58 53.77972 -1.18611 392 ft 73 kts 283°
2026-05-04 19:58 53.78097 -1.19453 246 ft 73 kts 282°
2026-05-04 19:59 53.78212 -1.20281 129 ft 70 kts 282°
2026-05-04 19:59 53.78322 -1.21053 44 ft 68 kts 280°
2026-05-04 19:59 53.78428 -1.21825 39 ft 77 kts 281°
2026-05-04 19:59 53.78551 -1.22703 351 ft 75 kts 278°
2026-05-04 20:00 53.78662 -1.23547 627 ft 76 kts 277°
2026-05-04 20:00 53.78637 -1.24472 810 ft 82 kts 258°
2026-05-04 20:00 53.78531 -1.25487 880 ft 92 kts 259°
2026-05-04 20:00 53.78409 -1.26523 944 ft 94 kts 252°
2026-05-04 20:01 53.78023 -1.27310 931 ft 85 kts 208°
2026-05-04 20:01 53.77441 -1.27457 892 ft 85 kts 179°
2026-05-04 20:01 53.77020 -1.26836 857 ft 90 kts 105°
2026-05-04 20:01 53.76897 -1.25772 815 ft 92 kts 101°
2026-05-04 20:02 53.76767 -1.24717 804 ft 91 kts 103°
2026-05-04 20:02 53.76633 -1.23661 801 ft 91 kts 102°
2026-05-04 20:02 53.76530 -1.22609 797 ft 91 kts 98°
2026-05-04 20:02 53.76431 -1.21553 789 ft 90 kts 100°
2026-05-04 20:03 53.76422 -1.20499 727 ft 92 kts 75°
2026-05-04 20:03 53.76814 -1.19720 674 ft 89 kts 29°
2026-05-04 20:03 53.77353 -1.19229 563 ft 87 kts 28°
2026-05-04 20:03 53.77889 -1.18975 466 ft 75 kts 341°
2026-05-04 20:04 53.78132 -1.19726 243 ft 81 kts 284°
2026-05-04 20:04 53.78264 -1.20620 116 ft 75 kts 279°
2026-05-04 20:04 53.78379 -1.21447 31 ft 67 kts 282°
2026-05-04 20:04 53.78481 -1.22170 46 ft 75 kts 282°
2026-05-04 20:05 53.78622 -1.23037 244 ft 73 kts 282°
2026-05-04 20:05 53.78722 -1.23865 381 ft 73 kts 266°
2026-05-04 20:05 53.78655 -1.24746 504 ft 75 kts 257°
2026-05-04 20:05 53.78566 -1.25624 603 ft 76 kts 261°
2026-05-04 20:06 53.78484 -1.26508 649 ft 76 kts 256°
2026-05-04 20:06 53.78118 -1.27075 724 ft 76 kts 199°
2026-05-04 20:06 53.77569 -1.27183 745 ft 84 kts 185°
2026-05-04 20:06 53.77100 -1.26647 762 ft 95 kts 117°
2026-05-04 20:07 53.76900 -1.25558 762 ft 96 kts 108°
2026-05-04 20:07 53.76725 -1.24497 796 ft 92 kts 105°
2026-05-04 20:07 53.76554 -1.23447 777 ft 94 kts 106°
2026-05-04 20:07 53.76408 -1.22373 776 ft 95 kts 101°
2026-05-04 20:08 53.76502 -1.21305 740 ft 91 kts 59°
2026-05-04 20:08 53.76814 -1.20410 707 ft 86 kts 53°
2026-05-04 20:08 53.77132 -1.19591 705 ft 82 kts 51°
2026-05-04 20:08 53.77352 -1.19051 679 ft 83 kts 51°
2026-05-04 20:09 53.77657 -1.18309 637 ft 70 kts 49°
2026-05-04 20:09 53.78091 -1.17862 622 ft 73 kts
2026-05-04 20:09 53.78533 -1.18001 601 ft 65 kts 333°
2026-05-04 20:09 53.78952 -1.18292 613 ft 62 kts 333°
2026-05-04 20:10 53.79327 -1.18584 549 ft 59 kts 330°
2026-05-04 20:10 53.79611 -1.19089 419 ft 66 kts 288°
2026-05-04 20:10 53.79534 -1.19809 282 ft 65 kts 242°
2026-05-04 20:10 53.79318 -1.20407 182 ft 57 kts 241°
2026-05-04 20:11 53.79107 -1.21007 98 ft 59 kts 240°
2026-05-04 20:11 53.78904 -1.21571 30 ft 50 kts 239°
2026-05-04 20:11 53.78758 -1.21975 30 ft 31 kts 236°
2026-05-04 20:11 53.78678 -1.22194 30 ft 13 kts 237°
2026-05-04 20:12 53.78653 -1.22263 30 ft 8 kts 242°
2026-05-04 20:12 53.78615 -1.22308 30 ft 10 kts 179°
2026-05-04 20:12 53.78552 -1.22314 30 ft 10 kts 184°
2026-05-04 20:12 53.78521 -1.22196 30 ft 16 kts 102°
2026-05-04 20:13 53.78491 -1.21972 30 ft 22 kts 103°
2026-05-04 20:13 53.78457 -1.21730 30 ft 24 kts 102°
2026-05-04 20:13 53.78423 -1.21467 30 ft 18 kts 103°
2026-05-04 20:13 53.78407 -1.21369 30 ft 3 kts 105°
2026-05-04 20:14 53.78406 -1.21364 30 ft 0 kts 105°
2026-05-04 20:17 53.78405 -1.21352 30 ft 5 kts 75°
2026-05-04 20:17 53.78468 -1.21324 30 ft 13 kts
2026-05-04 20:17 53.78572 -1.21298 30 ft 17 kts
2026-05-04 20:17 53.78692 -1.21269 30 ft 18 kts
2026-05-04 20:18 53.78794 -1.21246 30 ft 12 kts 13°
2026-05-04 20:18 53.78832 -1.21148 30 ft 16 kts 65°
2026-05-04 20:18 53.78882 -1.20983 30 ft 16 kts 60°
2026-05-04 20:18 53.78952 -1.20949 30 ft 7 kts 321°
2026-05-04 20:19 53.78955 -1.20963 30 ft 0 kts 259°